Location: Ferchesar
(52.6477°N, 12.4298°E)
Time: 05:06:13
(UTC+02:00)

Vanguard 3 - Pass Details

Date: 04 March 2021
Orbit: 508 x 3262 km, 33.3° (Epoch: 15 April)

Event Time Altitude Azimuth Distance (km) Brightness Sun altitude
Rises 19:10:18 0° 263° (W) 6,794 13.6 -12.2°
Reaches altitude 10° 19:16:24 10° 252° (WSW) 5,384 12.4 -13.1°
Maximum altitude 19:27:02 24° 207° (SSW) 3,419 10.5 -14.7°
Drops below altitude 10° 19:34:25 10° 158° (SSE) 3,621 10.1 -15.8°
Enters shadow 19:36:18 - 149° (SSE) 3,953 10.3 -16.1°
Sets 19:37:34 0° 145° (SE) 4,220 - -16.3°
